TimeCDT,TemperatureF,Dew PointF,Humidity,Sea Level PressureIn,VisibilityMPH,Wind Direction,Wind SpeedMPH,Gust SpeedMPH,PrecipitationIn,Events,Conditions,WindDirDegrees,DateUTC
12:15 AM,77.9,69.3,75,29.92,10.0,Calm,Calm,-,N/A,,Clear,0,2013-05-20 05:15:00
12:35 AM,77.5,69.4,76,29.92,10.0,Calm,Calm,-,N/A,,Clear,0,2013-05-20 05:35:00
12:55 AM,77.7,69.8,76,29.92,10.0,South,5.8,-,N/A,,Clear,180,2013-05-20 05:55:00
1:15 AM,77.2,69.8,78,29.91,10.0,Calm,Calm,-,N/A,,Clear,0,2013-05-20 06:15:00
1:35 AM,77.0,70.0,79,29.91,10.0,Calm,Calm,-,N/A,,Clear,0,2013-05-20 06:35:00
1:55 AM,77.2,70.2,79,29.91,10.0,Calm,Calm,-,N/A,,Scattered Clouds,0,2013-05-20 06:55:00
2:15 AM,77.5,70.5,79,29.91,10.0,Calm,Calm,-,N/A,,Mostly Cloudy,0,2013-05-20 07:15:00
2:35 AM,77.9,70.9,79,29.91,10.0,South,4.6,-,N/A,,Overcast,170,2013-05-20 07:35:00
3:15 AM,77.4,70.9,80,29.91,10.0,SSE,5.8,-,N/A,,Overcast,160,2013-05-20 08:15:00
3:35 AM,77.4,70.9,80,29.91,10.0,Calm,Calm,-,N/A,,Overcast,0,2013-05-20 08:35:00
3:55 AM,77.2,71.1,81,29.92,10.0,Calm,Calm,-,N/A,,Overcast,0,2013-05-20 08:55:00
4:35 AM,77.0,71.4,83,29.93,10.0,Calm,Calm,-,N/A,,Overcast,0,2013-05-20 09:35:00
4:55 AM,77.0,71.6,83,29.93,10.0,Calm,Calm,-,N/A,,Overcast,0,2013-05-20 09:55:00
5:15 AM,76.6,71.4,84,29.93,10.0,Calm,Calm,-,N/A,,Overcast,0,2013-05-20 10:15:00
5:35 AM,76.5,71.6,85,29.94,10.0,Calm,Calm,-,N/A,,Overcast,0,2013-05-20 10:35:00
6:15 AM,76.6,71.6,84,29.95,10.0,Calm,Calm,-,N/A,,Overcast,0,2013-05-20 11:15:00
7:15 AM,77.0,71.8,84,29.97,7.0,Calm,Calm,-,N/A,,Overcast,0,2013-05-20 12:15:00
7:35 AM,77.4,71.8,83,29.96,7.0,SE,3.5,-,N/A,,Scattered Clouds,130,2013-05-20 12:35:00
7:55 AM,78.8,72.1,80,29.97,7.0,Calm,Calm,-,N/A,,Scattered Clouds,0,2013-05-20 12:55:00
8:15 AM,79.5,72.1,78,29.97,7.0,SSE,8.1,-,N/A,,Mostly Cloudy,160,2013-05-20 13:15:00
8:35 AM,80.4,72.1,76,29.97,10.0,SSE,9.2,18.4,N/A,,Mostly Cloudy,160,2013-05-20 13:35:00
8:55 AM,81.9,72.3,73,29.97,10.0,South,11.5,17.3,N/A,,Scattered Clouds,180,2013-05-20 13:55:00
9:15 AM,82.4,72.3,71,29.97,10.0,South,12.7,19.6,N/A,,Scattered Clouds,190,2013-05-20 14:15:00
9:35 AM,82.2,71.2,69,29.97,10.0,South,10.4,20.7,N/A,,Mostly Cloudy,190,2013-05-20 14:35:00
9:55 AM,82.0,71.4,70,29.97,10.0,South,9.2,-,N/A,,Scattered Clouds,190,2013-05-20 14:55:00
10:35 AM,85.3,71.1,62,29.96,10.0,South,12.7,19.6,N/A,,Scattered Clouds,190,2013-05-20 15:35:00
10:55 AM,84.4,70.2,62,29.96,10.0,SSW,12.7,23.0,N/A,,Mostly Cloudy,200,2013-05-20 15:55:00
11:15 AM,86.2,70.3,59,29.96,10.0,South,13.8,25.3,N/A,,Scattered Clouds,190,2013-05-20 16:15:00
11:35 AM,86.2,70.7,60,29.96,10.0,SSW,10.4,19.6,N/A,,Mostly Cloudy,200,2013-05-20 16:35:00
11:55 AM,87.3,70.9,58,29.96,10.0,South,12.7,24.2,N/A,,Scattered Clouds,180,2013-05-20 16:55:00
12:15 PM,87.8,70.7,57,29.95,10.0,SSW,13.8,21.9,N/A,,Scattered Clouds,200,2013-05-20 17:15:00
12:35 PM,88.5,70.9,56,29.95,10.0,South,11.5,18.4,N/A,,Scattered Clouds,170,2013-05-20 17:35:00
12:55 PM,88.3,71.4,57,29.94,10.0,South,10.4,19.6,N/A,,Mostly Cloudy,190,2013-05-20 17:55:00
1:15 PM,89.8,71.4,55,29.94,10.0,South,9.2,18.4,N/A,,Scattered Clouds,170,2013-05-20 18:15:00
1:35 PM,88.3,71.2,57,29.93,10.0,South,12.7,17.3,N/A,,Mostly Cloudy,180,2013-05-20 18:35:00
1:55 PM,90.5,71.2,53,29.93,10.0,South,15.0,20.7,N/A,,Scattered Clouds,190,2013-05-20 18:55:00
2:15 PM,90.3,70.2,51,29.92,10.0,South,10.4,20.7,N/A,,Scattered Clouds,190,2013-05-20 19:15:00
2:35 PM,90.5,70.0,51,29.91,10.0,South,10.4,18.4,N/A,,Scattered Clouds,170,2013-05-20 19:35:00
2:55 PM,90.9,70.5,51,29.91,10.0,South,8.1,17.3,N/A,,Scattered Clouds,180,2013-05-20 19:55:00
3:15 PM,90.7,69.8,50,29.91,10.0,South,11.5,18.4,N/A,,Scattered Clouds,180,2013-05-20 20:15:00
3:35 PM,91.8,69.6,48,29.90,10.0,South,11.5,17.3,N/A,,Scattered Clouds,190,2013-05-20 20:35:00
3:55 PM,90.5,69.1,49,29.89,10.0,South,12.7,16.1,N/A,,Clear,190,2013-05-20 20:55:00
4:15 PM,91.8,68.9,47,29.88,10.0,SSW,6.9,-,N/A,,Clear,200,2013-05-20 21:15:00
4:35 PM,90.5,69.4,50,29.87,10.0,South,6.9,17.3,N/A,,Clear,190,2013-05-20 21:35:00
4:55 PM,91.6,69.8,49,29.87,10.0,South,11.5,17.3,N/A,,Clear,190,2013-05-20 21:55:00
5:15 PM,90.3,68.7,49,29.86,10.0,South,11.5,17.3,N/A,,Clear,180,2013-05-20 22:15:00
5:35 PM,91.6,69.8,49,29.84,10.0,South,9.2,-,N/A,,Scattered Clouds,180,2013-05-20 22:35:00
5:55 PM,90.9,68.9,48,29.84,10.0,South,10.4,17.3,N/A,,Scattered Clouds,170,2013-05-20 22:55:00
6:15 PM,90.0,69.3,50,29.83,10.0,South,9.2,-,N/A,,Clear,170,2013-05-20 23:15:00
6:35 PM,89.6,69.4,51,29.82,10.0,South,5.8,-,N/A,,Clear,170,2013-05-20 23:35:00
6:55 PM,88.9,70.2,54,29.82,10.0,SSE,6.9,-,N/A,,Scattered Clouds,160,2013-05-20 23:55:00
7:15 PM,87.8,70.0,55,29.82,10.0,SSE,4.6,-,N/A,,Clear,160,2013-05-21 00:15:00
7:35 PM,86.9,70.0,57,29.82,10.0,SSE,3.5,-,N/A,,Clear,160,2013-05-21 00:35:00
7:55 PM,86.0,69.8,58,29.84,10.0,Calm,Calm,-,N/A,,Clear,0,2013-05-21 00:55:00
8:15 PM,85.1,70.0,60,29.84,10.0,Calm,Calm,-,N/A,,Clear,0,2013-05-21 01:15:00
8:35 PM,84.4,70.3,63,29.84,10.0,Calm,Calm,-,N/A,,Scattered Clouds,0,2013-05-21 01:35:00
9:15 PM,83.3,70.9,66,29.86,10.0,Calm,Calm,-,N/A,,Clear,0,2013-05-21 02:15:00
9:35 PM,82.6,71.1,68,29.86,10.0,Calm,Calm,-,N/A,,Scattered Clouds,0,2013-05-21 02:35:00
9:55 PM,82.4,71.1,68,29.87,10.0,Calm,Calm,-,N/A,,Clear,0,2013-05-21 02:55:00
10:15 PM,81.9,71.1,70,29.88,10.0,Calm,Calm,-,N/A,,Clear,0,2013-05-21 03:15:00
10:35 PM,81.0,71.1,72,29.89,10.0,Calm,Calm,-,N/A,,Clear,0,2013-05-21 03:35:00
10:55 PM,80.4,71.1,73,29.90,10.0,Calm,Calm,-,N/A,,Clear,0,2013-05-21 03:55:00
11:15 PM,79.9,71.1,74,29.91,10.0,Calm,Calm,-,N/A,,Clear,0,2013-05-21 04:15:00
11:35 PM,79.9,70.7,73,29.91,10.0,Calm,Calm,-,N/A,,Clear,0,2013-05-21 04:35:00
11:55 PM,79.3,70.7,75,29.91,10.0,Calm,Calm,-,N/A,,Clear,0,2013-05-21 04:55:00